[Date Prev][Date Next][Thread Prev][Thread Next] - [Date Index][Thread Index][Author Index]

2 Line ISS Keps 8-31



ISS
1 25544U 98067A   04244.47442130  .00013129  00000-0  11543-3 0  5752
2 25544  51.6375 301.4012 0005707  98.8922  99.7558 15.69155512330141
----
Via the sarex mailing list at AMSAT.ORG courtesy of AMSAT-NA.
To unsubscribe, send "unsubscribe sarex" to Majordomo@amsat.org



AMSAT Top AMSAT Home